Погода в Санта Монике

США     34°01′30″N   118°28′49″W
темп.,
°C
ветер,
м/с
пор.,
м/с
влажн.,
%
обл.,
%
осадки,
мм/ч
давл.,
гПа
погр.,
м
22 сентября, ср
ср2223:00+25ююз01520 0.0 101728
02:00+23юв12640 0.0 101849
05:00+23в11600 0.0 101716
08:00+24з11520 0.0 101837
11:00+28юз33430 0.0 1017314
14:00+29юз564299 0.0 1015655
17:00+30з78370 0.0 1012668
20:00+27зсз45350 0.0 1013120
23 сентября, чт
чт2323:00+26з33380 0.0 101343
02:00+25з12458 0.0 101228
05:00+23вюв015239 0.0 101153
08:00+23юв12570 0.0 1012100
11:00+25ю224921 0.0 1012335
14:00+24юз4352100 0.0 1011330
17:00+24юз444839 0.0 1009257
20:00+21ююз225771 0.0 1010126
24 сентября, пт
пт2423:00+20ю22640 0.0 1012131
02:00+19юз11720 0.0 1012134
05:00+19юз00693 0.0 101286
08:00+20ююв11645 0.0 101398
11:00+23ююз32524 0.0 1014353
14:00+23юз325017 0.0 1013341
17:00+23юз345064 0.0 1012243
20:00+20ююз22680 0.0 1013165
25 сентября, сб
сб2523:00+19юз11730 0.0 1014158
02:00+19зюз11680 0.0 101490
05:00+19зюз22680 0.0 101495
08:00+19зюз11660 0.0 1015134
11:00+23юз32500 0.0 1015322
14:00+22юз446017 0.0 1014330
17:00+22юз44593 0.0 1012292
20:00+20ююз22700 0.0 1013160
26 сентября, вс
вс2623:00+19ю12740 0.0 1014157
02:00+19юз11730 0.0 1014139
05:00+18юз12760 0.0 1014158
08:00+19ю11740 0.0 1015205
11:00+22ююз21600 0.0 1016377
14:00+22юз426018 0.0 1014375
17:00+20юз336716 0.0 1014271
20:00+19ююз22721 0.0 1015145